Pagosa Springs, CO

3:04 AM MDT on June 28, 2017 (GMT -0600)
Pagosa Springs

Weather History for KPSO - April, 2013

Change the Weather History Date:

Thursday, April 25, 2013

  Actual Average (KE33) Record (KE33)
Temperature  
Mean Temperature 48 °F -  
Max Temperature 62 °F 54 °F 69 °F (2012)
Min Temperature 34 °F 33 °F 21 °F (2008)
Degree Days  
Heating Degree Days 17    
Moisture  
Dew Point 19 °F    
Average Humidity 38    
Maximum Humidity 74    
Minimum Humidity 13    
Precipitation  
Precipitation 0.00 in - - ()
Sea Level Pressure  
Sea Level Pressure 30.13 in    
Wind  
Wind Speed 3 mph (SW)    
Max Wind Speed 26 mph    
Max Gust Speed 40 mph    
Visibility 10 miles    
Events Rain    
Averages and records for this station are not official NWS values.
T = Trace of Precipitation, MM = Missing Value Source: NWS Daily Summary

Daily Weather History Graph

Daily Weather History Graph

Search for Another Location

Airport or City:

Trip Planner

Search our weather history database for the weather conditions in past years. The results will help you decide how hot, cold, wet, or windy it might be!

Date:

Astronomy

Apr. 25, 2013 Rise Set
Actual Time 6:20 AM MDT 7:52 PM MDT
Civil Twilight 5:52 AM MDT 8:20 PM MDT
Nautical Twilight 5:19 AM MDT 8:53 PM MDT
Astronomical Twilight 4:44 AM MDT 9:28 PM MDT
Moon 8:08 PM MDT (4/25) 6:05 AM MDT (4/25)
Length of Visible Light 14h 27m
Length of Day
13h 32m
Full, 100% of the Moon is Illuminated
Apr 25
Full
Apr 25
Full
May 2
Last Quarter
May 9
New
May 17
First Quarter

Hourly Weather History & Observations

Time (MDT) Temp. Windchill Dew Point Humidity Pressure Visibility Wind Dir Wind Speed Gust Speed Precip Events Conditions
12:15 AM 37.4 °F - 7.3 °F 29% 30.19 in 10.0 mi Calm Calm - N/A   Clear
12:35 AM 36.7 °F - 7.9 °F 30% 30.19 in 10.0 mi Calm Calm - N/A   Clear
12:55 AM 34.7 °F - 9.7 °F 35% 30.20 in 10.0 mi Calm Calm - N/A   Clear
1:15 AM 36.1 °F - 7.2 °F 30% 30.20 in 10.0 mi Calm Calm - N/A   Clear
1:35 AM 35.4 °F - 11.1 °F 37% 30.19 in 10.0 mi Calm Calm - N/A   Clear
1:55 AM 35.2 °F - 11.8 °F 38% 30.19 in 10.0 mi Calm Calm - N/A   Clear
2:15 AM 36.5 °F - 12.7 °F 38% 30.17 in 10.0 mi Calm Calm - N/A   Scattered Clouds
2:35 AM 36.7 °F - 10.8 °F 34% 30.18 in 10.0 mi Calm Calm - N/A   Scattered Clouds
2:55 AM 35.1 °F - 9.9 °F 35% 30.16 in 10.0 mi Calm Calm - N/A   Mostly Cloudy
3:15 AM 37.9 °F - 8.4 °F 30% 30.16 in 10.0 mi Calm Calm - N/A   Overcast
3:35 AM 39.0 °F - 10.4 °F 31% 30.17 in 10.0 mi Calm Calm - N/A   Overcast
3:55 AM 37.9 °F - 16.0 °F 41% 30.16 in 10.0 mi Calm Calm - N/A   Mostly Cloudy
4:15 AM 37.9 °F - 17.8 °F 44% 30.16 in 10.0 mi Calm Calm - N/A   Mostly Cloudy
4:35 AM 36.7 °F - 14.9 °F 41% 30.16 in 10.0 mi Calm Calm - N/A   Mostly Cloudy
4:55 AM 36.1 °F - 15.4 °F 43% 30.16 in 10.0 mi Calm Calm - N/A   Scattered Clouds
5:15 AM 37.0 °F - 13.1 °F 37% 30.16 in 10.0 mi Calm Calm - N/A   Clear
5:35 AM 36.3 °F - 13.6 °F 39% 30.16 in 10.0 mi Calm Calm - N/A   Scattered Clouds
5:55 AM 35.6 °F - 11.8 °F 38% 30.16 in 10.0 mi Calm Calm - N/A   Mostly Cloudy
6:15 AM 37.0 °F - 11.1 °F 34% 30.16 in 10.0 mi Calm Calm - N/A   Mostly Cloudy
6:35 AM 35.8 °F - 17.8 °F 48% 30.16 in 10.0 mi Calm Calm - N/A   Scattered Clouds
6:55 AM 36.9 °F - 14.4 °F 40% 30.17 in 10.0 mi Calm Calm - N/A   Mostly Cloudy
7:15 AM 35.8 °F - 20.1 °F 53% 30.17 in 10.0 mi Calm Calm - N/A   Overcast
7:35 AM 38.1 °F - 20.1 °F 48% 30.17 in 10.0 mi Calm Calm - N/A   Overcast
7:55 AM 38.8 °F - 18.7 °F 44% 30.18 in 10.0 mi Calm Calm - N/A   Overcast
8:15 AM 41.0 °F - 14.5 °F 34% 30.18 in 10.0 mi Calm Calm - N/A   Overcast
8:35 AM 42.8 °F - 13.6 °F 31% 30.18 in 10.0 mi Calm Calm - N/A   Overcast
8:55 AM 44.6 °F - 13.3 °F 28% 30.18 in 10.0 mi Calm Calm - N/A   Overcast
9:15 AM 46.9 °F - 11.8 °F 24% 30.18 in 10.0 mi Calm Calm - N/A   Overcast
9:35 AM 48.0 °F - 13.5 °F 25% 30.18 in 10.0 mi Calm Calm - N/A   Overcast
9:55 AM 49.1 °F - 10.4 °F 21% 30.18 in 10.0 mi Calm Calm - N/A   Overcast
10:15 AM 51.1 °F - 11.5 °F 20% 30.19 in 10.0 mi Calm Calm - N/A   Overcast
10:35 AM 51.4 °F - 13.6 °F 22% 30.18 in 10.0 mi SSW 3.5 mph - N/A   Mostly Cloudy
10:55 AM 52.7 °F - 14.4 °F 22% 30.17 in 10.0 mi South 8.1 mph - N/A   Overcast
11:15 AM 54.5 °F - 14.5 °F 21% 30.17 in 10.0 mi SSE 5.8 mph 19.6 mph N/A   Overcast
11:35 AM 55.0 °F - 15.1 °F 21% 30.17 in 10.0 mi South 8.1 mph - N/A   Overcast
11:55 AM 55.6 °F - 14.5 °F 20% 30.16 in 10.0 mi South 5.8 mph - N/A   Mostly Cloudy
12:15 PM 55.2 °F - 15.4 °F 21% 30.14 in 10.0 mi WSW 3.5 mph - N/A   Mostly Cloudy
12:35 PM 56.7 °F - 13.1 °F 18% 30.13 in 10.0 mi Calm Calm - N/A   Overcast
12:55 PM 58.6 °F - 15.6 °F 19% 30.11 in 10.0 mi WSW 4.6 mph - N/A   Mostly Cloudy
1:15 PM 58.6 °F - 14.4 °F 18% 30.10 in 10.0 mi West 6.9 mph 17.3 mph N/A   Scattered Clouds
1:35 PM 59.7 °F - 13.3 °F 16% 30.09 in 10.0 mi SSW 8.1 mph - N/A   Scattered Clouds
1:55 PM 60.3 °F - 12.6 °F 15% 30.08 in 10.0 mi WSW 10.4 mph 20.7 mph N/A   Clear
2:15 PM 60.4 °F - 13.3 °F 16% 30.07 in 10.0 mi SW 12.7 mph 18.4 mph N/A   Scattered Clouds
2:35 PM 61.2 °F - 12.0 °F 15% 30.06 in 10.0 mi SW 12.7 mph 19.6 mph N/A   Scattered Clouds
2:55 PM 61.7 °F - 13.1 °F 15% 30.04 in 10.0 mi West 19.6 mph 25.3 mph N/A   Scattered Clouds
3:15 PM 61.3 °F - 11.1 °F 14% 30.03 in 10.0 mi SW 11.5 mph 19.6 mph N/A   Scattered Clouds
3:35 PM 62.2 °F - 10.9 °F 13% 30.01 in 10.0 mi SW 10.4 mph 18.4 mph N/A   Scattered Clouds
3:55 PM 61.9 °F - 10.0 °F 13% 30.00 in 10.0 mi WSW 13.8 mph 20.7 mph N/A   Clear
4:15 PM 61.0 °F - 9.3 °F 13% 29.99 in 10.0 mi SW 8.1 mph - N/A   Clear
4:35 PM 60.4 °F - 10.2 °F 14% 29.99 in 10.0 mi SSW 9.2 mph - N/A   Scattered Clouds
4:55 PM 57.4 °F - 18.3 °F 22% 30.02 in 10.0 mi South 26.5 mph 40.3 mph N/A   Overcast
5:15 PM 54.5 °F - 22.5 °F 29% 30.05 in 10.0 mi South 16.1 mph 24.2 mph N/A Rain Light Rain
5:35 PM 52.2 °F - 27.3 °F 38% 30.08 in 10.0 mi South 13.8 mph - N/A   Overcast
5:55 PM 49.3 °F - 32.4 °F 52% 30.09 in 10.0 mi West 11.5 mph 18.4 mph N/A Rain Light Rain
6:15 PM 48.2 °F - 32.4 °F 54% 30.08 in 10.0 mi Calm Calm - N/A   Overcast
6:35 PM 46.6 °F - 35.4 °F 65% 30.07 in 10.0 mi NNE 8.1 mph - N/A   Overcast
6:55 PM 46.4 °F 43.5 °F 34.9 °F 64% 30.08 in 10.0 mi NNE 5.8 mph - N/A   Overcast
7:15 PM 46.4 °F 42.4 °F 34.7 °F 64% 30.09 in 10.0 mi NNE 8.1 mph - N/A   Overcast
7:35 PM 46.6 °F - 34.2 °F 62% 30.09 in 10.0 mi NE 5.8 mph - N/A   Overcast
7:55 PM 46.6 °F - 33.3 °F 60% 30.09 in 10.0 mi NNE 5.8 mph - N/A   Overcast
8:15 PM 47.3 °F - 32.4 °F 56% 30.11 in 10.0 mi WNW 6.9 mph - N/A   Overcast
8:35 PM 46.6 °F - 34.0 °F 62% 30.13 in 10.0 mi NW 3.5 mph - N/A Rain Light Rain
8:55 PM 45.5 °F 43.2 °F 33.3 °F 62% 30.14 in 10.0 mi North 4.6 mph - N/A   Light Drizzle
9:15 PM 44.6 °F 42.2 °F 32.9 °F 64% 30.14 in 10.0 mi North 4.6 mph - N/A   Scattered Clouds
9:35 PM 45.0 °F 43.5 °F 32.0 °F 60% 30.15 in 10.0 mi WNW 3.5 mph - N/A   Mostly Cloudy
9:55 PM 43.7 °F 41.1 °F 33.3 °F 67% 30.16 in 10.0 mi East 4.6 mph - N/A   Overcast
10:15 PM 43.7 °F 41.1 °F 34.2 °F 69% 30.17 in 10.0 mi East 4.6 mph - N/A   Overcast
10:35 PM 43.2 °F 40.5 °F 34.3 °F 71% 30.16 in 10.0 mi ENE 4.6 mph - N/A   Overcast
10:55 PM 42.8 °F - 33.8 °F 70% 30.17 in 10.0 mi Calm Calm - N/A   Overcast
11:15 PM 42.8 °F - 33.8 °F 70% 30.16 in 10.0 mi Calm Calm - N/A   Overcast
11:35 PM 42.3 °F - 34.3 °F 74% 30.17 in 10.0 mi Calm Calm - N/A   Overcast
11:55 PM 42.1 °F - 34.3 °F 74% 30.16 in 10.0 mi Calm Calm - N/A   Overcast